VOE3BX LPPR-LEBB

Flight info

Callsign VOE3BX
Flight time 0h 57m
Altitude 32000
Route BELDU DCT ADORO L155 ZMR N976 DGO
Aircraft A320/M-SDE3FGHIRWY/LB1

Departure

Time 2026-05-01 11:43
Airport Francisco de Sá Carneiro Airport (LPPR)

Arrival

Time 2026-05-01 12:41
Airport Bilbao Airport (LEBB)
Time Latitude Longitude Altitude Speed Heading
2026-05-01 11:14 41.23549 -8.67229 245 ft 0 kts 108°
2026-05-01 11:34 41.23551 -8.67236 245 ft 3 kts 109°
2026-05-01 11:34 41.23561 -8.67269 245 ft 4 kts 121°
2026-05-01 11:34 41.23577 -8.67297 243 ft 3 kts 137°
2026-05-01 11:35 41.23591 -8.67312 242 ft 4 kts 149°
2026-05-01 11:35 41.23624 -8.67330 242 ft 3 kts 168°
2026-05-01 11:35 41.23633 -8.67332 242 ft 0 kts 168°
2026-05-01 11:39 41.23622 -8.67330 242 ft 5 kts 174°
2026-05-01 11:40 41.23588 -8.67338 241 ft 6 kts 202°
2026-05-01 11:40 41.23533 -8.67377 241 ft 10 kts 204°
2026-05-01 11:40 41.23468 -8.67384 239 ft 9 kts 168°
2026-05-01 11:40 41.23411 -8.67368 239 ft 8 kts 168°
2026-05-01 11:41 41.23353 -8.67383 237 ft 13 kts 217°
2026-05-01 11:41 41.23321 -8.67511 236 ft 16 kts 260°
2026-05-01 11:41 41.23317 -8.67542 235 ft 1 kts 260°
2026-05-01 11:41 41.23301 -8.67643 240 ft 20 kts 255°
2026-05-01 11:42 41.23358 -8.67735 238 ft 16 kts 355°
2026-05-01 11:42 41.23530 -8.67792 239 ft 54 kts 348°
2026-05-01 11:42 41.24168 -8.67960 214 ft 125 kts 349°
2026-05-01 11:42 41.25182 -8.68228 287 ft 164 kts 346°
2026-05-01 11:43 41.26325 -8.68551 771 ft 177 kts 347°
2026-05-01 11:43 41.27613 -8.68888 1165 ft 201 kts 348°
2026-05-01 11:43 41.29065 -8.69264 1582 ft 224 kts 346°
2026-05-01 11:44 41.32423 -8.70142 2731 ft 260 kts 348°
2026-05-01 11:44 41.34225 -8.70610 3570 ft 268 kts 348°
2026-05-01 11:44 41.36066 -8.71090 4445 ft 273 kts 349°
2026-05-01 11:44 41.37949 -8.71576 5337 ft 277 kts 350°
2026-05-01 11:45 41.39880 -8.71601 6179 ft 282 kts 14°
2026-05-01 11:45 41.41651 -8.70512 6997 ft 284 kts 40°
2026-05-01 11:45 41.42918 -8.68514 7781 ft 285 kts 64°
2026-05-01 11:45 41.43486 -8.65993 8559 ft 286 kts 87°
2026-05-01 11:46 41.43583 -8.63330 9343 ft 291 kts 90°
2026-05-01 11:46 41.43662 -8.60602 10113 ft 297 kts 90°
2026-05-01 11:46 41.43739 -8.57794 10578 ft 314 kts 90°
2026-05-01 11:46 41.43819 -8.54777 10810 ft 338 kts 90°
2026-05-01 11:47 41.43906 -8.51573 11231 ft 352 kts 90°
2026-05-01 11:47 41.44001 -8.48293 11906 ft 357 kts 90°
2026-05-01 11:47 41.44101 -8.44961 12618 ft 361 kts 90°
2026-05-01 11:47 41.44203 -8.41551 13327 ft 366 kts 90°
2026-05-01 11:48 41.44304 -8.38145 14025 ft 370 kts 91°
2026-05-01 11:48 41.44405 -8.34701 14632 ft 374 kts 91°
2026-05-01 11:48 41.44505 -8.31213 15195 ft 379 kts 91°
2026-05-01 11:48 41.44600 -8.27685 15791 ft 383 kts 91°
2026-05-01 11:49 41.44694 -8.24113 16380 ft 388 kts 91°
2026-05-01 11:49 41.44787 -8.20501 16952 ft 392 kts 91°
2026-05-01 11:49 41.44883 -8.16850 17537 ft 396 kts 91°
2026-05-01 11:49 41.44980 -8.13211 18104 ft 400 kts 91°
2026-05-01 11:50 41.45080 -8.09439 18649 ft 404 kts 91°
2026-05-01 11:50 41.45177 -8.05678 19146 ft 408 kts 91°
2026-05-01 11:50 41.45272 -8.01880 19635 ft 411 kts 91°
2026-05-01 11:50 41.45366 -7.98056 20142 ft 414 kts 91°
2026-05-01 11:51 41.45459 -7.94197 20601 ft 418 kts 91°
2026-05-01 11:51 41.45550 -7.90316 21095 ft 421 kts 91°
2026-05-01 11:51 41.45641 -7.86397 21571 ft 424 kts 91°
2026-05-01 11:51 41.45731 -7.82512 22027 ft 427 kts 91°
2026-05-01 11:52 41.45825 -7.78496 22485 ft 430 kts 91°
2026-05-01 11:52 41.45918 -7.74548 22948 ft 433 kts 91°
2026-05-01 11:52 41.46013 -7.70525 23389 ft 436 kts 91°
2026-05-01 11:52 41.46106 -7.66469 23818 ft 439 kts 91°
2026-05-01 11:53 41.46197 -7.62388 24080 ft 441 kts 91°
2026-05-01 11:53 41.46288 -7.58299 24131 ft 441 kts 91°
2026-05-01 11:53 41.46375 -7.54218 24155 ft 440 kts 91°
2026-05-01 11:53 41.46459 -7.50137 24155 ft 440 kts 91°
2026-05-01 11:54 41.46542 -7.46052 24153 ft 440 kts 91°
2026-05-01 11:54 41.46621 -7.41976 24155 ft 440 kts 91°
2026-05-01 11:54 41.46701 -7.37896 24155 ft 440 kts 91°
2026-05-01 11:54 41.46780 -7.33818 24163 ft 440 kts 91°
2026-05-01 11:55 41.46858 -7.29739 24167 ft 440 kts 91°
2026-05-01 11:55 41.46935 -7.25656 24160 ft 440 kts 91°
2026-05-01 11:55 41.47008 -7.21586 24153 ft 440 kts 91°
2026-05-01 11:55 41.47078 -7.17512 24158 ft 439 kts 91°
2026-05-01 11:56 41.47145 -7.13450 24156 ft 438 kts 91°
2026-05-01 11:56 41.47210 -7.09387 24155 ft 438 kts 91°
2026-05-01 11:56 41.47276 -7.05327 24155 ft 438 kts 91°
2026-05-01 11:56 41.47345 -7.01263 24156 ft 438 kts 91°
2026-05-01 11:57 41.47415 -6.97198 24153 ft 438 kts 91°
2026-05-01 11:57 41.47486 -6.93138 24153 ft 438 kts 91°
2026-05-01 11:57 41.47553 -6.89080 24153 ft 438 kts 91°
2026-05-01 11:57 41.47613 -6.85015 24153 ft 438 kts 91°
2026-05-01 11:58 41.47667 -6.80956 24151 ft 438 kts 91°
2026-05-01 11:58 41.47720 -6.76895 24160 ft 437 kts 91°
2026-05-01 11:58 41.47831 -6.68788 24153 ft 437 kts 91°
2026-05-01 11:59 41.47887 -6.64738 24155 ft 437 kts 91°
2026-05-01 11:59 41.47940 -6.60679 24154 ft 437 kts 91°
2026-05-01 11:59 41.47990 -6.56622 24154 ft 437 kts 91°
2026-05-01 12:00 41.48089 -6.48519 24155 ft 437 kts 91°
2026-05-01 12:00 41.48138 -6.44466 24153 ft 437 kts 91°
2026-05-01 12:00 41.48231 -6.36355 24160 ft 437 kts 91°
2026-05-01 12:01 41.48272 -6.32286 24458 ft 440 kts 91°
2026-05-01 12:01 41.48323 -6.28249 24845 ft 443 kts 89°
2026-05-01 12:01 41.48599 -6.24147 25216 ft 446 kts 86°
2026-05-01 12:01 41.48912 -6.20022 25572 ft 449 kts 86°
2026-05-01 12:02 41.49229 -6.15871 25922 ft 451 kts 86°
2026-05-01 12:02 41.49547 -6.11695 26265 ft 454 kts 86°
2026-05-01 12:02 41.49863 -6.07498 26596 ft 456 kts 86°
2026-05-01 12:02 41.50179 -6.03275 26967 ft 458 kts 86°
2026-05-01 12:03 41.50492 -5.99032 27312 ft 461 kts 86°
2026-05-01 12:03 41.50803 -5.94769 27648 ft 463 kts 86°
2026-05-01 12:03 41.51114 -5.90479 27983 ft 466 kts 86°
2026-05-01 12:03 41.51426 -5.86167 28307 ft 468 kts 86°
2026-05-01 12:04 41.51740 -5.81835 28627 ft 471 kts 86°
2026-05-01 12:04 41.52056 -5.77474 28932 ft 473 kts 86°
2026-05-01 12:04 41.52373 -5.73094 29216 ft 476 kts 86°
2026-05-01 12:04 41.52694 -5.68691 29503 ft 478 kts 85°
2026-05-01 12:05 41.53277 -5.64319 29798 ft 481 kts 76°
2026-05-01 12:05 41.55701 -5.55933 30325 ft 487 kts 66°
2026-05-01 12:05 41.57086 -5.51806 30569 ft 488 kts 66°
2026-05-01 12:06 41.58455 -5.47710 30818 ft 490 kts 66°
2026-05-01 12:06 41.59837 -5.43556 31170 ft 488 kts 66°
2026-05-01 12:06 41.61207 -5.39413 31549 ft 487 kts 67°
2026-05-01 12:06 41.62570 -5.35282 31899 ft 486 kts 67°
2026-05-01 12:07 41.63929 -5.31153 32120 ft 484 kts 67°
2026-05-01 12:07 41.65279 -5.27056 32173 ft 477 kts 67°
2026-05-01 12:07 41.67935 -5.18997 32185 ft 472 kts 67°
2026-05-01 12:08 41.70571 -5.10967 32183 ft 471 kts 67°
2026-05-01 12:08 41.73199 -5.02939 32188 ft 471 kts 67°
2026-05-01 12:09 41.75822 -4.94896 32184 ft 471 kts 67°
2026-05-01 12:09 41.78436 -4.86860 32197 ft 470 kts 67°
2026-05-01 12:10 41.82331 -4.74881 32192 ft 469 kts 67°
2026-05-01 12:11 41.86206 -4.62846 32169 ft 468 kts 67°
2026-05-01 12:11 41.88784 -4.54828 32156 ft 468 kts 67°
2026-05-01 12:12 41.91359 -4.46810 32171 ft 467 kts 67°
2026-05-01 12:12 41.93926 -4.38793 32168 ft 467 kts 67°
2026-05-01 12:13 41.96474 -4.30779 32166 ft 466 kts 67°
2026-05-01 12:13 41.99017 -4.22771 32157 ft 466 kts 67°
2026-05-01 12:14 42.01557 -4.14758 32147 ft 465 kts 67°
2026-05-01 12:14 42.04129 -4.06771 32138 ft 465 kts 66°
2026-05-01 12:15 42.06917 -3.98905 32139 ft 466 kts 64°
2026-05-01 12:15 42.09769 -3.91074 32139 ft 466 kts 64°
2026-05-01 12:16 42.12389 -3.83705 32139 ft 466 kts 65°
2026-05-01 12:16 42.12448 -3.83537 32139 ft 466 kts 65°
2026-05-01 12:17 42.15245 -3.75511 32147 ft 465 kts 65°
2026-05-01 12:17 42.17990 -3.67625 32151 ft 464 kts 65°
2026-05-01 12:18 42.20730 -3.59751 32188 ft 464 kts 65°
2026-05-01 12:18 42.23471 -3.51874 32184 ft 463 kts 65°
2026-05-01 12:19 42.26200 -3.44005 32173 ft 463 kts 65°
2026-05-01 12:19 42.28897 -3.36181 32173 ft 463 kts 64°
2026-05-01 12:20 42.31169 -3.29579 32169 ft 462 kts 64°
2026-05-01 12:20 42.34313 -3.20433 32153 ft 462 kts 64°
2026-05-01 12:21 42.35662 -3.16501 31409 ft 459 kts 64°
2026-05-01 12:21 42.36573 -3.13844 30854 ft 461 kts 64°
2026-05-01 12:21 42.37914 -3.09920 30219 ft 458 kts 64°
2026-05-01 12:21 42.39241 -3.06020 29515 ft 456 kts 65°
2026-05-01 12:22 42.40557 -3.02137 28900 ft 452 kts 65°
2026-05-01 12:22 42.41858 -2.98342 28277 ft 448 kts 63°
2026-05-01 12:22 42.43532 -2.94825 27656 ft 444 kts 50°
2026-05-01 12:22 42.45706 -2.91896 27081 ft 439 kts 37°
2026-05-01 12:23 42.48256 -2.89674 26496 ft 434 kts 25°
2026-05-01 12:23 42.51054 -2.88227 25913 ft 429 kts 13°
2026-05-01 12:23 42.53975 -2.87596 25339 ft 423 kts
2026-05-01 12:23 42.56907 -2.87440 24783 ft 420 kts
2026-05-01 12:24 42.59810 -2.87289 24245 ft 417 kts
2026-05-01 12:24 42.62699 -2.87131 23709 ft 414 kts
2026-05-01 12:24 42.65569 -2.86970 23146 ft 410 kts
2026-05-01 12:24 42.68398 -2.86810 22655 ft 405 kts
2026-05-01 12:25 42.71191 -2.86926 22177 ft 398 kts 351°
2026-05-01 12:25 42.76365 -2.89122 21265 ft 385 kts 329°
2026-05-01 12:25 42.78664 -2.90930 20808 ft 380 kts 327°
2026-05-01 12:26 42.80932 -2.92746 20357 ft 377 kts 327°
2026-05-01 12:26 42.85434 -2.96348 19457 ft 373 kts 327°
2026-05-01 12:26 42.87675 -2.98144 18981 ft 373 kts 327°
2026-05-01 12:27 42.89907 -2.99934 18518 ft 372 kts 327°
2026-05-01 12:27 42.94350 -3.03494 17536 ft 368 kts 327°
2026-05-01 12:28 42.98745 -3.07021 16608 ft 364 kts 327°
2026-05-01 12:28 43.00925 -3.08774 16142 ft 363 kts 327°
2026-05-01 12:28 43.05257 -3.12269 15225 ft 361 kts 326°
2026-05-01 12:29 43.07410 -3.14012 14770 ft 359 kts 327°
2026-05-01 12:29 43.09561 -3.15752 14310 ft 358 kts 327°
2026-05-01 12:29 43.13809 -3.19183 13355 ft 356 kts 327°
2026-05-01 12:30 43.18033 -3.22614 12430 ft 351 kts 327°
2026-05-01 12:30 43.20128 -3.24316 11944 ft 349 kts 327°
2026-05-01 12:30 43.22262 -3.25877 11477 ft 348 kts 336°
2026-05-01 12:31 43.24574 -3.26849 11010 ft 348 kts 345°
2026-05-01 12:31 43.26946 -3.27473 10577 ft 346 kts 351°
2026-05-01 12:31 43.29299 -3.27776 10448 ft 334 kts 359°
2026-05-01 12:31 43.31530 -3.27245 10318 ft 322 kts 22°
2026-05-01 12:32 43.33522 -3.25870 9828 ft 320 kts 30°
2026-05-01 12:32 43.37338 -3.22871 8350 ft 314 kts 31°
2026-05-01 12:32 43.39221 -3.21385 7669 ft 310 kts 31°
2026-05-01 12:33 43.41076 -3.19937 7031 ft 304 kts 31°
2026-05-01 12:33 43.42905 -3.18518 6397 ft 300 kts 31°
2026-05-01 12:33 43.44705 -3.17130 5962 ft 287 kts 31°
2026-05-01 12:33 43.46352 -3.15791 5845 ft 263 kts 40°
2026-05-01 12:34 43.47433 -3.13947 5699 ft 236 kts 73°
2026-05-01 12:34 43.47616 -3.11868 5586 ft 212 kts 107°
2026-05-01 12:34 43.46951 -3.10187 5460 ft 195 kts 143°
2026-05-01 12:34 43.45761 -3.09502 5323 ft 184 kts 180°
2026-05-01 12:35 43.44556 -3.09958 5144 ft 179 kts 206°
2026-05-01 12:35 43.43483 -3.10823 4715 ft 181 kts 210°
2026-05-01 12:35 43.42423 -3.11747 4515 ft 179 kts 210°
2026-05-01 12:35 43.41366 -3.12629 4242 ft 177 kts 200°
2026-05-01 12:36 43.40169 -3.12954 3805 ft 175 kts 179°
2026-05-01 12:36 43.39004 -3.12671 3490 ft 173 kts 160°
2026-05-01 12:36 43.37964 -3.11828 3275 ft 177 kts 140°
2026-05-01 12:36 43.37201 -3.10497 3049 ft 180 kts 119°
2026-05-01 12:37 43.36644 -3.08970 2822 ft 180 kts 118°
2026-05-01 12:37 43.36108 -3.07491 2583 ft 165 kts 118°
2026-05-01 12:37 43.35622 -3.06155 2373 ft 149 kts 116°
2026-05-01 12:37 43.35167 -3.04907 2167 ft 144 kts 118°
2026-05-01 12:38 43.34728 -3.03703 1991 ft 140 kts 119°
2026-05-01 12:38 43.34294 -3.02511 1788 ft 140 kts 117°
2026-05-01 12:38 43.33859 -3.01313 1613 ft 140 kts 115°
2026-05-01 12:38 43.33419 -3.00114 1365 ft 141 kts 116°
2026-05-01 12:39 43.32957 -2.98896 1096 ft 141 kts 112°
2026-05-01 12:39 43.32517 -2.97682 1002 ft 143 kts 113°
2026-05-01 12:39 43.32068 -2.96478 779 ft 144 kts 114°
2026-05-01 12:39 43.31634 -2.95244 631 ft 141 kts 114°
2026-05-01 12:40 43.31212 -2.94047 433 ft 140 kts 116°
2026-05-01 12:40 43.30763 -2.92861 214 ft 139 kts 116°
2026-05-01 12:40 43.30348 -2.91724 123 ft 121 kts 117°
2026-05-01 12:40 43.30055 -2.90914 124 ft 69 kts 116°
2026-05-01 12:41 43.29934 -2.90524 122 ft 20 kts 97°
2026-05-01 12:41 43.29928 -2.90312 133 ft 27 kts 89°
2026-05-01 12:41 43.29999 -2.90249 132 ft 11 kts 293°
2026-05-01 12:41 43.30033 -2.90338 132 ft 10 kts 297°
2026-05-01 12:42 43.30062 -2.90417 132 ft 9 kts 295°
2026-05-01 12:42 43.30087 -2.90489 132 ft 8 kts 296°
2026-05-01 12:42 43.30104 -2.90536 132 ft 0 kts 296°
2026-05-01 12:43 43.30110 -2.90553 132 ft 6 kts 298°
2026-05-01 12:43 43.30154 -2.90575 132 ft 8 kts 11°
2026-05-01 12:43 43.30223 -2.90532 132 ft 14 kts 18°
2026-05-01 12:44 43.30319 -2.90589 132 ft 15 kts 324°
2026-05-01 12:44 43.30376 -2.90669 132 ft 10 kts
2026-05-01 12:44 43.30425 -2.90636 132 ft 0 kts 28°